RH
3 3 3 2 3 2 3 2 2 2 2 2 2 2 2 2 3 2 2 2 2 2 2 3 3 3 3 4 4 4 5 5 5 5 6 5 5 4 4 4 6 8 10 12 14 17 19 19 24 24 24 21 17 31 45 57 62 49 51 74 88 85 75 71 71 73 77 77 69 66 73 82 83 81 70 45 35 41 39 46 55 46 55 71 47 26 33 34
3 3 3 3 3 3 3 2 3 2 2 3 2 3 2 2 2 2 3 2 2 2 2 2 2 2 2 3 3 4 4 4 4 5 6 5 6 5 5 4 3 6 6 10 12 12 15 18 24 23 24 21 17 39 56 54 53 48 47 63 79 78 69 67 65 66 75 79 69 63 68 76 82 86 86 66 38 34 42 44 47 48 56 58 37 28 36 37
2 3 3 3 3 3 3 3 3 3 3 3 2 3 2 3 2 2 2 2 3 2 3 2 2 2 2 2 2 3 3 4 4 4 5 5 6 5 5 5 4 5 4 7 10 9 12 15 21 21 23 20 18 39 52 49 46 49 56 61 71 70 62 63 61 60 67 69 65 72 78 77 78 81 87 82 54 38 46 50 45 42 48 47 37 32 33 38
2 3 3 3 3 3 3 3 3 3 3 3 3 3 2 3 2 3 2 2 3 2 3 2 2 2 2 3 1 2 3 4 5 5 6 4 5 5 5 6 4 5 4 5 7 8 10 11 16 16 18 18 23 35 40 44 38 39 50 52 62 67 62 63 58 53 54 54 57 70 83 85 79 69 78 91 71 48 50 60 53 39 42 48 41 32 31 38
3 3 3 3 3 3 4 3 4 3 4 3 3 3 3 3 2 3 2 2 3 2 3 2 3 2 2 2 1 2 2 3 6 5 5 4 5 5 5 6 5 5 5 5 5 6 6 8 12 12 14 18 31 43 40 36 26 32 49 52 61 63 60 60 54 49 45 47 55 60 66 78 82 68 70 91 87 64 55 61 60 42 36 48 43 31 29 35
3 3 3 3 4 4 4 4 4 4 4 4 4 4 3 3 3 3 2 2 2 2 3 2 2 2 2 2 1 2 2 4 5 4 4 5 5 5 5 5 5 6 5 5 5 5 6 6 9 10 13 21 32 42 49 45 24 23 41 55 61 57 55 53 49 50 44 47 53 50 52 59 70 73 71 82 91 79 58 53 57 40 27 41 44 30 28 32
3 3 3 3 4 4 4 4 4 4 4 4 4 4 3 3 3 3 3 3 2 2 2 2 2 2 2 1 2 2 3 5 5 4 4 5 6 6 6 5 5 6 5 6 5 5 6 5 8 8 9 27 43 43 49 45 18 10 25 38 46 49 53 49 51 53 46 48 44 35 39 40 44 60 67 73 87 88 67 53 54 42 25 31 36 31 29 32
3 3 3 3 4 4 5 5 5 5 5 5 4 4 4 4 3 3 3 3 2 3 2 2 2 2 2 2 3 3 4 5 6 5 5 6 6 6 6 5 5 5 5 6 5 6 6 6 7 7 12 31 45 45 48 34 9 13 28 35 41 52 55 46 44 44 38 37 33 27 26 27 32 43 55 62 77 89 76 56 49 40 28 25 27 32 31 29
3 3 3 3 4 4 5 5 5 5 5 5 5 5 5 4 4 3 3 3 3 3 2 2 2 2 2 3 4 4 5 5 5 5 6 6 6 6 6 5 5 5 6 5 6 6 6 8 5 7 19 29 34 39 41 24 11 25 40 47 50 55 58 47 33 31 35 30 27 33 28 27 36 42 50 56 68 87 83 62 49 40 35 31 26 31 31 27
3 3 3 3 4 4 5 5 5 5 5 5 5 5 5 4 4 3 3 3 3 3 2 2 3 3 3 4 5 5 5 4 5 6 6 6 6 6 5 5 6 5 6 5 6 7 5 8 6 7 12 15 22 28 21 9 14 34 47 52 49 50 51 44 37 32 32 30 27 33 29 23 32 44 51 56 69 88 87 65 47 42 45 44 35 35 32 27
3 3 3 3 4 4 4 5 5 5 5 6 5 5 5 4 4 3 3 3 3 3 2 3 3 4 5 6 6 6 6 5 6 6 6 7 6 6 6 5 5 4 6 5 5 6 6 7 7 9 8 6 11 13 10 6 10 27 39 44 49 55 43 31 42 44 30 25 28 33 31 24 35 54 66 76 85 91 90 69 46 44 49 48 47 47 37 28
3 3 3 3 4 4 4 5 5 5 6 5 6 5 5 4 4 3 3 3 3 3 3 4 4 6 7 6 7 6 6 6 6 6 6 7 6 6 6 5 5 5 4 5 5 5 7 8 8 8 7 8 7 6 12 11 10 23 39 49 56 57 44 34 45 53 44 32 29 37 39 35 43 54 65 88 97 94 93 72 47 45 46 47 53 52 39 29
3 3 3 3 4 4 4 4 5 5 5 6 6 5 5 4 4 3 3 3 3 3 4 5 5 7 7 7 7 6 6 6 6 6 6 6 6 6 6 6 6 5 4 4 5 5 6 8 8 8 8 9 7 7 14 17 20 32 46 57 59 53 52 54 55 61 61 46 35 37 39 36 42 51 63 88 97 97 97 67 44 47 44 47 55 50 38 31
2 3 3 3 4 3 4 4 5 5 5 6 5 5 5 4 4 4 3 3 2 3 4 5 7 8 8 7 6 6 5 5 5 6 6 6 6 6 6 6 5 5 5 4 4 5 6 7 7 8 8 8 8 8 10 14 24 39 51 59 62 63 65 66 64 66 66 56 43 35 35 39 52 69 79 91 95 96 95 65 45 49 45 49 55 47 40 38
3 3 3 3 3 3 4 4 5 5 5 6 5 5 5 4 4 4 3 3 3 4 4 6 8 8 7 6 6 6 5 5 5 5 5 5 5 6 5 5 6 5 5 5 5 4 4 6 7 7 8 8 9 9 9 12 21 37 53 63 66 68 76 75 61 58 66 63 49 33 35 53 75 91 88 90 98 90 79 64 53 51 45 48 51 42 42 44
3 3 3 3 3 3 4 4 5 5 5 5 5 5 5 5 4 4 4 3 3 4 5 7 8 8 7 6 5 5 5 5 5 4 4 5 4 4 5 5 5 5 5 5 4 4 5 5 5 7 7 8 9 8 9 12 25 47 60 68 70 63 70 76 57 53 66 60 52 49 49 59 77 91 91 95 102 79 58 60 62 56 46 44 46 41 44 48
3 3 3 3 3 4 4 5 5 5 6 5 5 5 5 5 4 4 4 3 3 3 5 8 8 8 7 6 6 5 5 5 4 5 4 4 4 4 4 4 4 5 5 4 4 5 4 4 6 7 6 8 10 8 10 13 29 61 74 72 74 68 67 71 61 57 62 55 62 77 75 71 78 91 99 99 90 65 47 57 63 59 50 42 43 42 45 50
3 3 3 3 4 4 5 6 6 6 6 6 5 5 5 5 4 4 4 3 3 4 6 8 8 8 6 6 6 5 5 4 4 5 4 4 4 4 4 4 4 4 4 4 5 4 4 6 6 6 7 8 7 7 12 18 27 49 66 71 76 73 67 65 62 57 56 58 65 80 87 86 86 91 96 90 76 58 46 55 62 59 52 45 43 42 47 51
3 3 4 5 5 6 7 7 7 7 6 6 5 5 5 5 4 4 4 4 4 5 7 8 9 8 6 6 6 5 6 4 5 4 4 4 3 4 4 4 4 3 4 4 4 5 5 5 5 8 8 6 15 14 8 18 33 46 60 72 79 75 71 69 64 56 53 55 55 68 89 95 93 89 83 74 66 56 46 50 59 58 51 43 42 41 48 55
5 6 7 7 7 8 8 8 8 7 7 6 5 5 5 4 4 4 4 4 4 5 7 9 10 8 6 6 6 6 6 4 5 4 4 4 3 5 3 3 4 3 4 3 4 6 3 6 8 7 7 25 52 42 22 30 37 42 56 74 85 78 71 70 66 59 55 54 51 57 75 89 92 87 76 63 54 49 48 50 52 56 52 41 37 37 44 56
8 8 9 9 9 9 9 9 8 7 7 6 5 5 5 4 4 4 5 4 5 5 8 10 10 8 6 6 5 6 6 5 5 4 4 4 4 4 3 4 4 3 4 3 6 7 5 7 5 6 21 49 64 48 43 52 43 47 66 78 84 73 62 63 64 65 58 51 52 54 64 79 82 81 79 70 60 54 53 53 49 52 55 43 35 37 39 45
9 10 10 10 10 10 9 9 8 7 7 6 6 5 4 5 4 4 4 5 6 6 8 11 10 8 6 6 6 5 5 5 5 4 4 4 4 4 4 4 3 4 4 3 8 12 13 10 8 27 44 39 34 31 37 42 38 56 73 73 74 68 63 63 56 57 53 45 52 59 60 67 72 76 78 73 71 67 61 58 51 52 60 54 41 38 38 38
10 11 10 10 10 9 9 8 8 7 6 6 6 5 5 5 4 4 5 6 7 7 9 11 9 8 7 7 6 5 5 5 4 4 3 3 4 4 4 5 5 6 5 6 7 14 32 37 30 37 33 14 13 21 19 18 29 46 54 58 65 66 72 72 55 54 63 56 52 54 51 59 75 83 82 77 73 71 71 74 65 56 59 61 52 42 37 36
11 10 10 10 9 8 8 7 7 6 6 6 5 5 5 5 5 5 5 6 6 8 9 10 10 9 8 7 6 6 5 4 4 4 3 4 4 3 5 5 4 6 9 10 8 18 41 44 28 19 10 5 9 11 7 9 22 36 43 48 57 71 80 75 59 55 67 66 52 51 56 67 80 83 82 82 77 72 77 85 78 63 54 51 53 50 42 37
10 9 9 8 8 8 7 6 7 6 6 6 5 6 5 5 6 4 6 7 7 9 10 10 11 9 9 8 7 6 4 4 4 4 3 3 3 3 4 3 6 18 19 9 9 24 35 25 11 8 5 5 6 6 5 6 13 28 40 40 45 63 69 67 66 53 53 66 64 60 68 75 79 79 78 78 83 81 76 81 79 66 59 55 50 49 48 45
9 9 8 7 7 6 6 6 6 6 6 6 6 6 5 6 5 5 8 6 6 12 13 13 13 10 10 8 7 6 5 5 4 4 4 3 4 3 4 3 4 18 18 6 8 17 18 11 6 7 7 4 3 4 5 5 10 24 40 46 46 54 59 63 60 44 51 81 86 74 75 74 64 68 79 83 91 90 80 86 85 68 63 63 53 48 52 54
7 7 6 6 6 5 5 6 5 6 6 6 6 6 6 7 5 7 9 7 15 25 21 15 13 12 11 8 8 7 5 7 5 5 4 3 5 2 4 6 3 10 7 3 23 28 15 10 7 6 6 5 10 17 17 6 6 24 41 49 55 59 59 55 43 36 52 77 86 86 89 82 61 58 73 84 92 94 89 93 91 77 66 63 59 56 57 56
6 6 5 5 5 4 5 5 5 6 6 7 7 6 7 6 6 8 7 8 23 31 21 14 14 14 12 8 8 6 6 8 5 7 6 4 6 3 5 5 3 10 3 8 48 57 34 23 11 4 9 23 37 36 23 5 9 35 40 32 44 49 44 44 42 40 40 53 84 95 80 75 75 68 67 73 81 88 91 88 86 85 80 73 69 63 57 53
6 6 5 5 5 5 5 5 6 6 6 7 6 7 8 6 8 8 7 17 31 32 23 18 15 15 14 10 8 7 6 7 6 8 6 4 6 4 6 6 3 9 2 10 42 41 23 19 9 3 13 31 38 24 9 4 11 27 23 12 19 24 24 29 33 32 26 41 77 79 54 58 71 65 64 73 79 83 86 82 79 82 87 89 82 68 56 50
6 6 6 6 6 6 6 6 6 6 7 8 7 8 7 7 9 7 13 35 46 35 24 19 15 14 16 12 9 9 6 6 7 6 5 6 7 6 6 6 5 7 6 11 24 20 12 11 7 7 9 11 13 10 8 8 8 11 10 9 14 23 31 26 20 18 15 23 43 49 52 68 68 56 63 75 77 78 75 73 75 72 76 87 87 78 64 51
6 7 7 7 6 7 7 6 7 7 7 7 7 8 7 8 10 8 18 39 46 34 19 14 14 15 16 12 11 10 7 8 6 5 8 6 6 7 5 8 9 8 21 36 44 41 25 8 6 8 6 7 8 9 9 6 7 7 6 11 29 52 61 52 41 24 9 8 16 27 49 67 69 64 69 71 68 67 60 57 62 62 68 76 80 86 78 60
8 8 7 7 8 7 7 7 7 7 8 8 8 8 8 9 8 13 23 33 41 38 24 15 13 15 16 13 16 15 10 10 7 7 8 5 17 21 9 18 24 19 41 65 67 59 37 19 22 19 8 7 6 8 16 16 14 12 13 26 49 71 74 72 73 59 38 25 17 24 40 49 57 65 67 68 66 61 57 54 52 57 71 78 78 85 82 73
9 9 10 9 9 9 9 8 8 8 8 8 9 8 9 10 10 22 43 51 46 38 27 17 12 16 16 13 18 16 12 12 8 10 8 8 37 46 19 15 18 24 58 74 63 58 48 42 48 39 20 7 5 24 47 53 47 38 42 58 69 73 71 72 78 75 66 55 44 51 58 48 49 60 59 56 56 55 56 56 51 57 74 81 85 89 83 82
15 11 10 10 10 10 10 10 9 9 9 9 9 9 8 10 13 26 53 69 59 40 28 21 15 15 15 19 27 20 14 20 13 11 12 12 39 56 39 24 13 24 58 66 57 54 52 61 65 50 32 12 6 24 42 53 59 55 56 67 71 69 70 74 76 73 70 69 67 71 72 58 54 65 62 52 56 63 61 54 51 64 81 84 87 91 86 87
31 21 14 11 11 11 10 11 11 9 11 9 9 10 8 11 15 24 47 64 60 44 28 19 16 16 16 24 32 22 20 29 20 13 16 19 40 56 52 43 25 22 40 53 60 54 50 65 63 42 30 16 8 11 15 26 47 59 57 56 59 62 63 62 63 66 66 66 66 67 70 68 66 70 67 57 62 70 69 64 62 68 78 82 83 87 89 88
41 35 27 17 12 12 11 12 11 11 12 10 10 10 9 13 17 35 62 64 51 41 30 21 17 20 28 34 35 27 23 26 17 13 17 20 38 49 43 37 26 17 21 31 48 53 53 62 58 48 44 25 9 10 11 15 35 59 65 60 60 61 58 55 56 64 67 65 65 62 60 64 70 71 65 59 62 63 64 72 77 74 70 71 75 80 89 90
42 43 41 32 22 17 13 12 12 12 12 11 12 9 11 15 15 42 78 65 40 36 33 31 28 29 41 49 48 39 31 26 18 20 33 38 43 43 33 23 16 14 12 16 39 51 50 59 61 59 59 34 6 9 13 4 19 56 71 66 63 65 69 66 56 57 63 64 66 64 60 62 67 69 66 66 66 63 62 66 72 74 69 66 68 71 81 85
42 46 48 45 38 28 20 15 12 13 13 12 14 11 13 17 20 53 81 57 36 36 30 34 42 41 42 46 50 48 42 40 33 31 45 54 50 42 32 20 10 11 10 12 29 30 26 54 67 54 57 44 8 2 11 2 12 42 48 46 60 75 84 78 62 61 64 62 64 64 62 64 64 64 68 71 68 67 68 65 62 64 63 64 66 65 68 73
41 44 48 50 49 42 33 23 14 14 14 12 14 13 14 20 30 54 65 41 30 31 23 29 43 46 44 42 46 51 47 46 43 39 45 56 57 50 41 28 12 11 12 8 14 15 20 51 68 56 57 51 22 12 25 29 33 36 26 33 57 67 69 72 71 75 74 67 68 69 65 67 68 65 66 68 64 62 69 70 66 62 60 60 61 60 64 75
43 42 44 48 52 51 46 36 25 19 15 13 16 15 16 22 31 40 37 23 23 28 26 33 44 47 47 43 43 52 52 47 47 49 49 54 58 55 50 38 19 11 13 11 10 15 21 31 54 70 61 49 48 47 47 60 71 64 51 51 57 59 64 71 73 78 81 75 73 76 75 73 71 66 65 65 60 56 62 67 64 59 58 59 58 55 58 67
49 44 43 45 49 52 53 49 40 29 21 17 15 16 19 19 28 52 54 29 21 29 30 35 46 47 44 45 47 53 55 52 52 52 50 49 50 55 52 33 19 14 12 16 19 18 17 16 36 65 59 53 69 65 53 66 81 81 81 80 76 75 73 66 67 80 86 78 71 76 77 69 61 56 55 54 51 47 50 55 56 52 52 58 58 53 52 52
54 48 45 44 44 48 52 53 51 43 33 25 17 17 23 17 26 67 84 47 20 28 29 27 37 38 34 40 44 50 57 59 58 52 50 54 54 57 51 27 18 20 10 14 22 17 15 13 16 35 47 56 62 49 42 56 65 62 63 65 65 68 71 71 80 91 85 70 65 73 77 69 62 59 56 56 58 55 48 45 47 48 51 61 63 57 57 56
56 52 47 44 43 44 46 48 52 53 47 38 26 18 21 23 25 47 70 54 27 27 32 29 31 32 31 32 35 50 62 63 61 52 48 56 52 44 41 28 23 22 12 12 17 12 13 15 12 17 26 37 42 36 30 28 29 26 25 40 54 57 67 80 86 84 76 66 62 72 81 74 64 63 62 66 73 77 72 62 57 56 61 75 79 70 67 65
56 50 43 38 35 34 34 37 45 53 55 50 39 25 22 31 32 24 36 51 39 25 30 34 30 29 34 34 34 49 64 61 58 58 58 64 61 50 41 31 24 17 11 12 13 16 19 16 14 10 13 35 55 63 59 41 25 19 27 58 73 56 50 64 70 62 59 61 60 69 82 72 59 60 60 60 62 66 72 73 69 63 60 73 85 79 72 69
52 46 42 36 30 28 28 29 35 43 51 53 46 35 23 24 30 21 24 49 52 34 31 38 37 33 37 40 37 42 58 62 58 64 71 67 64 61 44 31 29 19 13 14 10 14 20 17 15 10 19 55 75 75 83 80 63 54 60 75 76 59 49 53 57 50 49 56 55 56 66 64 63 69 66 63 62 56 59 63 65 62 57 65 79 79 74 71
51 45 46 43 38 37 34 32 32 33 41 47 47 51 46 32 27 26 26 38 48 45 44 47 45 40 43 46 42 39 48 55 58 68 77 72 71 68 44 30 34 23 14 17 11 9 13 11 11 9 16 45 61 62 77 86 78 77 83 83 82 84 74 50 38 38 44 54 52 48 54 56 63 71 65 62 64 61 62 63 61 58 55 61 69 70 72 72
55 51 53 54 54 55 50 42 37 34 40 48 49 60 76 71 52 39 31 27 31 45 61 66 60 58 62 58 48 46 43 42 55 70 71 69 77 75 51 37 39 30 19 18 13 12 12 7 11 12 7 14 24 35 54 62 59 60 66 69 74 83 75 45 30 35 42 48 51 50 51 50 53 57 51 47 48 49 55 62 62 57 54 57 58 55 60 68
60 60 64 65 64 67 67 60 51 43 40 46 47 50 69 85 79 63 52 40 32 39 55 69 71 71 75 68 58 60 55 45 54 68 66 62 68 73 63 49 42 36 28 23 17 15 13 9 11 11 18 33 30 20 24 27 25 26 28 29 31 35 36 24 17 26 34 42 50 52 50 48 47 47 46 45 43 40 42 48 54 56 54 55 52 47 48 58
60 59 60 61 63 70 74 73 70 67 59 52 49 46 50 65 74 76 77 66 54 51 52 62 75 74 69 66 67 76 74 62 62 72 77 77 76 80 82 74 62 46 34 30 27 20 14 14 12 8 31 66 56 21 11 10 8 8 7 7 7 4 7 8 8 16 22 25 35 46 49 45 40 39 42 43 41 38 36 37 43 50 52 51 48 44 42 46
50 50 54 60 67 71 70 68 69 75 78 71 63 58 54 55 62 76 87 82 79 82 74 67 76 82 77 71 71 79 82 79 79 84 88 89 85 84 87 93 90 70 50 43 40 32 19 11 12 10 16 32 27 9 8 8 6 9 6 4 7 3 2 3 1 5 10 10 15 27 35 36 33 32 33 33 33 31 29 32 37 41 45 45 42 40 37 38
41 49 55 62 68 69 67 67 66 65 69 72 73 72 71 69 67 70 76 79 88 98 96 86 80 82 87 83 75 76 81 83 87 93 96 93 89 89 88 92 99 92 78 71 65 61 45 19 12 13 6 11 20 21 23 16 4 6 7 3 3 2 4 9 6 4 13 21 23 25 30 32 30 29 28 26 27 27 26 30 34 34 39 42 38 34 33 32
40 49 55 58 61 63 61 62 64 60 58 61 65 70 77 84 83 74 68 77 91 96 97 100 92 80 81 85 81 75 73 76 82 92 99 94 89 94 93 90 95 95 93 92 89 90 74 35 14 10 10 33 59 63 65 53 24 9 10 12 13 8 3 6 6 5 14 26 32 33 33 30 26 25 27 24 23 27 29 32 34 34 37 40 38 33 31 30
Wind_Speed
13 13 12 12 12 12 12 11 11 10 10 10 9 9 8 8 8 8 8 8 8 9 9 9 9 10 10 10 10 11 12 12 11 10 10 11 12 12 11 11 11 11 11 11 11 10 10 10 9 8 8 8 7 5 7 8 7 6 7 9 12 6 4 6 5 5 4 4 5 5 5 4 5 5 5 5 3 2 2 1 1 1 0 2 3 3 4 2
11 11 11 11 11 11 11 11 11 10 10 10 9 9 9 9 9 9 9 9 10 10 11 11 12 12 12 12 12 12 13 13 13 12 12 13 12 12 12 12 12 11 11 11 11 10 10 9 9 9 8 8 8 6 6 7 7 7 7 8 11 6 4 6 4 4 4 4 5 5 5 3 3 4 4 4 3 2 1 1 1 0 0 1 2 3 3 2
9 9 9 9 10 10 10 10 10 10 10 10 10 9 9 9 9 9 9 10 11 12 12 13 14 14 15 15 14 14 14 14 13 13 15 15 14 13 13 13 13 12 12 11 11 10 10 9 9 9 8 8 8 8 8 8 8 9 8 8 10 6 5 7 5 4 4 4 6 5 4 3 2 3 2 2 2 1 1 1 1 0 1 1 2 2 3 2
7 7 7 7 8 8 9 9 9 10 10 10 10 10 10 10 10 10 11 11 12 13 14 16 17 18 18 18 17 15 16 15 12 14 17 16 15 15 14 14 14 13 13 12 12 11 10 10 9 9 8 8 7 8 9 9 10 11 10 8 9 7 6 8 6 6 6 5 7 7 5 5 3 4 4 3 2 1 1 1 0 0 1 2 2 2 2 1
5 6 6 6 7 7 8 9 9 10 10 10 10 11 11 11 11 11 12 13 14 15 16 18 20 21 21 20 18 17 17 14 13 18 18 15 16 16 16 16 15 15 14 13 13 12 11 10 9 9 8 7 7 7 8 9 10 12 11 10 9 7 7 9 8 8 8 7 8 9 8 6 7 8 8 7 4 2 2 2 2 1 2 3 2 1 2 1
4 4 5 5 6 7 8 8 9 10 10 11 11 12 12 12 12 13 13 14 15 17 18 20 22 23 23 22 19 18 17 13 16 20 16 16 18 17 17 17 16 16 15 14 14 13 12 11 10 9 7 7 7 7 7 8 10 11 12 11 10 9 9 10 10 11 10 8 9 10 8 8 11 11 10 9 5 4 3 3 4 3 2 4 4 1 2 1
3 3 4 5 5 6 7 8 9 10 10 11 12 13 13 13 14 14 15 16 17 18 20 22 24 25 23 21 19 18 16 14 19 20 16 17 18 18 19 18 17 17 16 16 15 14 14 12 11 9 8 8 8 9 9 10 11 11 11 11 11 12 12 11 11 12 11 10 11 12 10 12 14 12 10 10 7 7 6 4 5 4 3 4 4 2 2 2
3 3 4 4 5 6 7 8 9 10 11 12 13 14 14 15 15 15 16 17 18 19 21 23 25 25 23 20 18 17 15 15 19 19 17 17 18 19 20 19 19 18 17 17 16 15 15 13 13 11 10 9 10 11 10 11 11 10 10 11 12 13 12 12 11 12 13 12 11 12 12 14 15 13 12 12 9 9 8 6 6 4 4 4 3 3 2 2
4 4 4 4 5 6 7 8 9 10 11 12 14 15 15 16 16 16 17 18 19 21 23 25 25 24 21 19 17 15 14 17 18 18 18 18 19 20 20 20 20 19 19 19 17 17 16 15 14 11 10 11 13 14 12 11 10 8 10 11 11 13 13 13 12 12 14 13 12 11 12 13 15 14 14 14 12 11 10 7 7 5 5 4 3 3 2 2
5 5 5 5 5 6 7 8 9 10 12 13 14 16 16 17 17 17 18 19 20 22 24 25 24 22 19 17 16 14 15 16 16 16 18 18 19 20 21 21 21 21 21 19 19 18 17 16 14 10 12 14 14 14 13 13 10 7 11 12 12 14 13 13 13 13 13 13 12 12 12 12 14 14 16 16 13 12 12 9 8 7 6 6 4 4 3 2
6 6 6 6 6 7 8 9 10 11 13 14 15 16 17 18 18 18 19 20 21 23 24 24 23 20 18 16 15 14 15 14 14 15 16 18 19 20 21 21 21 21 21 21 20 19 18 17 14 14 16 13 11 13 13 12 11 9 11 13 13 13 14 14 13 14 14 13 13 13 13 12 13 14 16 17 13 14 12 10 10 8 8 8 6 5 4 3
7 6 6 6 7 7 8 9 11 12 13 15 16 17 18 19 19 19 20 21 22 23 23 23 21 19 17 16 15 14 14 13 14 15 15 17 18 20 21 21 21 21 22 22 21 20 19 18 17 18 16 11 12 12 10 11 11 10 10 13 13 12 14 14 12 14 15 15 14 13 13 13 14 15 16 17 15 16 12 11 10 9 9 8 8 7 6 4
7 7 7 7 8 8 9 10 11 13 14 16 17 18 19 19 20 20 20 21 22 23 23 22 20 18 17 16 15 15 15 15 15 15 15 16 17 19 20 21 21 21 21 21 21 21 20 19 18 18 16 14 15 11 10 11 10 9 10 12 13 12 14 12 11 13 14 15 15 15 13 12 14 16 15 14 16 18 13 12 11 9 9 8 9 8 7 5
8 8 8 8 8 9 10 11 12 14 15 17 18 19 19 20 20 21 21 22 22 22 22 21 19 17 17 17 16 15 15 15 15 15 15 16 18 19 20 21 22 21 21 21 21 21 21 20 19 18 17 17 16 12 11 10 9 9 9 11 13 13 13 11 11 12 14 16 16 15 14 12 13 14 12 12 17 19 14 12 11 10 9 9 9 9 7 6
8 8 9 9 9 10 11 12 13 15 16 17 18 19 20 20 21 22 22 22 22 22 22 21 19 18 17 17 16 15 15 15 15 14 15 16 17 18 20 21 22 22 22 21 21 21 21 20 19 18 18 18 16 14 12 10 9 8 8 12 14 15 15 13 12 12 14 15 14 14 14 11 10 10 9 12 19 19 14 12 11 10 9 9 9 9 8 7
9 9 10 10 11 11 12 13 14 16 17 18 19 20 20 20 21 22 22 21 21 21 21 20 18 18 18 17 16 15 14 14 14 14 14 15 16 17 19 20 22 22 22 22 21 20 20 19 19 18 17 17 16 15 13 10 9 8 10 14 14 15 17 14 12 12 13 13 12 11 11 9 8 9 10 14 19 16 12 12 11 11 9 8 8 9 8 7
10 10 11 11 12 12 13 14 15 17 18 19 19 20 20 21 21 21 21 21 21 21 20 19 18 18 17 16 15 14 14 13 13 13 13 13 14 16 17 18 20 21 22 22 21 20 20 19 18 17 17 16 15 15 13 11 11 10 12 14 13 15 16 14 11 10 11 11 10 8 6 6 5 6 9 13 15 12 10 11 11 11 8 7 8 8 8 7
10 11 11 12 12 13 14 15 16 18 18 19 19 20 20 21 20 21 21 20 20 20 19 18 17 18 17 15 14 13 13 13 12 12 12 12 13 13 14 16 18 20 21 21 21 20 19 18 18 17 16 15 15 15 13 14 14 13 13 13 13 14 15 14 11 10 10 10 10 9 7 3 3 8 11 11 11 10 10 10 10 10 8 7 8 8 8 7
10 11 11 12 12 14 15 17 18 19 19 19 19 20 21 20 20 20 20 20 20 19 18 18 17 17 16 14 14 12 11 10 10 10 10 10 11 11 13 14 15 17 18 19 20 19 19 18 16 15 15 14 13 14 15 15 16 17 14 9 10 13 12 11 11 12 11 10 11 9 7 2 5 7 8 7 7 8 9 9 9 9 8 8 8 8 8 7
11 12 12 13 14 16 17 18 19 19 20 19 19 20 20 19 19 19 19 19 19 18 17 16 16 16 14 13 13 11 10 8 8 8 8 8 8 9 10 11 12 14 15 17 17 16 17 15 14 15 14 10 10 13 13 14 18 19 14 6 8 15 12 10 11 12 11 11 11 8 7 4 2 4 5 4 5 7 7 8 9 9 9 8 8 8 8 7
13 14 15 16 17 18 19 19 20 20 20 19 20 20 18 18 19 18 18 18 18 17 16 16 16 15 14 13 12 11 9 8 7 7 7 6 6 7 7 8 9 10 12 14 12 10 12 13 13 12 9 11 16 18 15 15 19 18 15 9 6 14 13 11 12 11 12 11 9 8 7 5 2 4 5 4 4 6 7 8 9 10 10 9 9 9 8 8
16 17 18 19 20 20 20 20 20 20 20 20 20 18 18 18 18 18 18 17 17 16 16 15 15 14 14 14 13 10 8 8 8 7 8 7 6 6 6 6 7 8 8 8 7 5 1 6 7 7 11 19 23 21 17 18 20 18 15 6 2 11 14 13 14 12 14 12 8 9 8 6 5 5 7 6 7 7 9 11 12 12 12 11 10 10 10 9
19 19 20 21 21 21 21 21 21 21 20 20 18 18 18 18 17 17 17 16 16 15 15 14 13 12 13 13 13 10 9 8 7 8 8 7 7 6 6 7 7 8 6 5 7 7 4 7 9 11 17 20 19 19 18 18 19 20 15 7 6 10 13 11 12 10 12 12 9 10 10 8 8 7 9 11 11 10 11 14 14 13 13 13 12 11 11 10
21 22 22 23 23 22 22 22 21 21 20 18 18 17 17 17 16 16 16 16 15 14 14 13 12 12 11 11 12 10 9 8 7 7 7 7 8 6 7 7 6 6 5 5 6 6 6 15 15 11 13 13 15 20 19 17 18 19 17 12 14 9 5 11 18 14 11 12 11 12 10 8 10 10 10 11 13 13 13 15 15 14 14 14 13 13 12 12
24 24 24 24 24 23 22 22 21 20 18 17 17 17 16 16 16 15 15 15 14 13 12 12 12 11 11 10 10 10 9 8 7 7 7 7 7 6 7 7 6 5 4 8 8 3 5 12 10 7 8 10 13 17 17 18 19 15 11 11 15 17 12 6 19 18 15 11 11 14 12 9 10 12 12 13 14 15 15 17 17 16 15 15 14 14 13 13
26 25 25 24 24 23 22 21 20 19 18 17 17 16 16 15 15 15 15 15 13 11 10 10 10 10 10 9 9 9 8 7 8 7 7 7 7 8 7 7 7 5 6 8 7 6 6 6 7 7 7 7 8 10 13 17 18 13 6 5 9 15 20 15 18 16 12 11 10 12 14 13 13 13 13 14 14 16 18 19 20 18 16 16 15 14 14 14
27 26 25 24 23 22 21 20 19 18 17 16 15 15 15 14 14 14 14 14 13 11 10 9 9 9 9 9 9 10 9 7 7 7 8 8 8 8 7 8 7 5 8 7 2 8 9 6 7 7 6 4 2 5 11 15 15 10 11 16 15 19 26 30 29 16 11 15 11 9 11 14 15 15 15 14 15 15 16 18 19 18 17 18 17 17 16 15
28 26 24 23 22 21 19 18 18 18 16 16 15 15 14 14 14 14 13 12 12 13 13 10 10 10 10 10 10 10 10 8 7 6 7 7 6 7 7 8 6 5 9 8 1 10 13 10 10 9 6 3 3 9 12 11 17 15 21 27 26 28 32 35 33 21 15 16 11 11 13 14 15 16 19 18 16 13 11 15 20 20 20 21 20 19 17 16
27 26 24 22 21 20 18 17 17 17 16 15 15 14 13 13 13 13 12 11 11 13 13 12 11 11 11 11 11 10 10 9 7 6 7 6 6 6 5 6 5 4 5 6 5 8 9 9 10 10 9 6 6 13 9 7 18 22 22 21 20 25 28 28 29 26 22 18 15 16 17 16 19 19 20 20 17 16 12 13 16 18 20 21 20 20 18 18
26 25 24 22 21 20 18 17 16 16 16 15 14 13 13 13 12 13 11 9 10 13 12 12 13 12 11 12 12 11 10 8 7 7 7 5 5 4 4 4 2 2 1 1 5 7 6 9 10 9 12 10 6 6 3 5 13 15 14 13 11 13 15 18 21 21 24 26 21 17 16 17 20 21 19 18 18 19 17 14 14 15 18 22 21 20 19 18
26 25 24 23 21 20 19 18 17 16 16 15 15 14 13 13 12 12 11 9 10 13 12 11 11 11 11 11 11 11 9 8 8 7 7 6 6 4 5 3 1 4 5 10 8 14 13 9 10 9 13 12 7 6 5 6 8 9 10 9 4 11 16 12 11 14 18 23 22 17 17 19 21 21 18 17 19 19 20 20 18 17 17 21 23 21 20 19
27 26 25 23 22 21 20 19 17 16 17 16 16 14 14 13 11 11 12 9 6 6 11 12 9 9 10 10 10 10 10 9 8 7 8 6 5 5 4 3 3 4 4 9 7 15 18 9 8 12 12 11 9 7 5 7 6 5 6 3 2 6 13 8 4 10 10 11 14 15 18 22 24 22 19 19 20 19 21 21 20 19 17 18 23 24 23 21
28 27 25 24 23 22 21 20 19 18 17 17 16 15 14 13 11 11 9 7 6 5 8 13 11 9 10 9 9 11 10 9 7 6 7 3 2 6 5 4 5 4 5 4 3 9 15 18 19 15 9 11 9 6 1 7 6 9 7 1 3 5 10 7 4 6 9 8 8 11 17 24 25 22 20 23 23 21 21 21 19 19 19 19 21 23 24 23
28 28 27 26 24 23 23 21 20 19 18 18 18 17 15 12 11 10 4 5 15 16 12 16 15 11 10 6 8 11 7 8 8 4 5 2 10 11 16 8 6 5 13 11 4 7 9 15 18 10 3 8 12 11 10 11 6 7 7 4 2 10 9 7 7 6 7 7 6 10 18 25 26 23 23 25 23 20 19 21 21 19 17 18 19 19 20 23
30 29 28 27 26 25 24 23 22 20 19 20 19 18 15 11 12 9 2 2 16 19 14 15 13 11 10 5 8 11 5 8 9 3 6 3 14 7 20 16 10 9 16 15 9 11 7 9 15 12 6 8 12 10 10 11 12 4 5 2 4 10 7 8 10 9 10 9 9 15 22 26 26 25 26 26 23 19 16 18 22 21 17 16 18 18 17 17
31 30 28 27 26 25 25 24 23 21 21 21 20 19 15 13 14 7 2 9 14 17 14 11 10 8 7 6 10 10 6 9 10 5 7 4 11 13 21 16 11 11 14 12 12 11 6 10 19 16 12 10 10 9 9 9 9 10 4 5 6 6 7 12 13 14 14 9 9 19 24 22 21 23 24 24 23 22 19 18 20 23 24 20 17 17 16 15
31 30 29 27 26 25 25 25 25 23 23 22 21 19 15 16 16 7 8 16 15 13 11 8 10 6 1 5 14 17 9 7 10 5 5 6 7 16 21 15 12 11 12 11 10 12 10 7 15 15 9 7 6 8 8 7 8 13 9 10 9 4 7 13 14 12 12 7 6 15 22 20 21 23 23 22 21 21 23 24 21 22 24 25 21 16 13 13
30 29 29 27 25 26 25 25 26 24 24 23 21 19 16 18 16 7 12 20 14 13 11 7 7 10 6 8 12 25 16 6 8 4 5 11 13 15 18 15 11 11 12 13 12 12 9 3 7 8 6 6 4 6 7 4 7 14 10 6 8 8 5 7 6 5 6 7 6 9 19 23 24 25 24 23 20 19 21 25 25 23 22 23 24 20 15 13
29 29 28 26 25 26 25 26 26 25 26 23 20 20 17 18 19 15 15 16 13 17 15 10 10 11 8 14 9 22 17 4 10 6 7 15 20 18 19 15 11 10 10 14 13 8 6 8 3 6 3 4 3 1 1 3 6 14 12 5 6 9 6 5 6 7 7 9 9 9 17 24 24 26 27 26 25 21 20 21 23 24 22 21 22 23 20 14
29 29 27 25 26 26 26 26 26 26 25 22 21 22 20 20 22 23 25 20 14 16 14 12 12 9 9 19 15 14 12 7 12 5 3 19 20 17 22 19 14 11 9 12 12 8 10 12 9 9 6 5 2 3 2 1 7 11 10 7 6 7 9 8 6 9 9 6 8 11 16 21 23 26 28 27 27 24 21 22 23 23 23 21 21 24 24 20
28 30 26 24 26 27 26 27 26 26 25 23 24 23 22 25 21 16 22 23 19 19 17 15 16 15 16 19 17 14 9 9 12 11 8 21 14 11 22 21 15 12 10 10 10 13 15 12 13 11 1 4 11 14 7 8 10 8 6 8 12 17 19 17 12 10 8 6 11 13 15 22 25 26 27 27 28 28 26 25 25 25 23 23 23 24 26 26
27 30 26 22 25 26 27 27 26 26 25 23 25 24 24 28 24 15 14 18 19 21 22 20 21 22 20 20 20 16 11 13 15 16 11 12 10 15 25 24 15 12 12 13 14 14 14 13 14 14 10 11 17 13 11 16 14 11 9 8 14 18 16 14 12 11 14 16 18 16 16 24 26 26 26 24 24 26 27 26 26 27 26 23 24 25 24 25
26 29 24 20 24 27 27 27 26 27 26 24 25 26 26 27 28 26 21 18 18 21 24 23 24 25 22 22 20 15 15 19 18 14 9 7 18 24 25 21 13 12 14 17 18 16 12 14 17 17 17 18 15 11 12 17 16 15 13 9 11 13 11 11 11 12 13 17 19 18 18 26 27 25 26 23 21 20 21 22 23 26 26 22 20 21 22 22
25 27 24 20 24 27 26 26 27 26 25 25 26 27 27 27 30 33 28 22 21 23 24 25 27 25 22 23 21 18 17 18 15 12 11 13 22 26 25 21 13 14 18 22 19 12 10 14 17 19 16 8 8 12 13 12 12 12 8 5 10 16 17 15 14 14 14 14 17 20 22 27 26 24 25 25 25 23 22 22 21 22 25 23 18 17 19 20
23 25 24 21 23 25 25 26 27 27 26 27 29 28 30 33 33 31 28 25 23 24 24 24 26 24 20 23 25 23 19 15 13 13 13 16 19 24 28 23 14 18 23 24 20 13 14 17 16 17 14 7 10 16 14 11 9 6 3 4 10 15 17 19 18 16 15 15 19 21 23 28 26 24 27 26 25 25 25 24 23 22 24 22 18 17 19 20
22 24 25 22 22 24 24 25 26 28 28 29 30 29 29 33 35 31 28 28 26 23 21 22 24 23 20 23 25 25 23 21 18 12 9 11 14 22 28 20 15 23 22 17 17 18 19 19 15 14 15 14 19 23 21 17 12 7 6 7 10 12 13 18 20 19 19 21 23 23 24 28 26 25 28 28 25 24 23 22 24 26 26 24 20 18 20 21
21 24 26 25 22 21 22 24 25 26 27 27 28 28 24 24 29 33 31 29 29 25 21 20 19 17 17 22 24 23 24 24 23 21 15 12 11 16 25 20 16 20 18 14 17 19 20 19 16 17 16 16 20 21 20 20 18 15 14 14 16 16 14 17 19 21 23 25 26 26 25 27 27 27 29 31 30 28 27 25 25 25 27 28 24 21 21 23
23 25 26 27 24 20 20 22 24 26 27 28 30 30 27 23 25 29 28 26 28 28 26 21 19 18 19 22 21 20 21 22 23 25 22 19 14 14 21 22 19 18 14 16 20 19 20 19 18 18 15 14 20 23 22 23 22 20 21 20 22 22 21 21 21 23 26 26 26 27 25 27 29 29 29 31 31 30 30 29 27 24 24 27 27 25 24 25
25 27 26 25 23 21 21 23 25 24 25 29 31 31 32 30 28 25 21 21 22 25 28 26 21 22 25 23 18 16 17 16 16 17 16 16 14 13 13 17 20 19 14 15 20 20 19 19 21 21 16 12 16 21 23 24 22 22 23 22 22 24 25 24 25 26 27 26 27 27 26 27 29 29 29 30 29 28 27 27 28 27 25 25 27 27 27 28
25 25 24 23 21 22 23 25 26 24 23 26 29 30 32 33 32 27 21 20 18 18 22 25 22 20 21 21 19 16 15 14 13 14 16 17 17 14 12 10 12 15 16 16 18 20 21 21 22 23 20 16 15 17 19 21 20 21 23 21 21 23 23 23 27 27 25 27 28 28 27 27 27 29 30 30 29 29 27 25 26 28 27 25 26 27 28 30
23 22 22 21 21 22 22 23 25 26 26 26 27 28 29 28 30 30 25 23 19 15 16 20 21 21 18 19 19 17 15 15 14 14 16 17 17 14 13 12 9 12 16 13 10 14 19 23 23 20 18 15 15 15 17 20 21 20 19 20 21 22 21 22 25 23 22 25 26 26 26 24 25 27 29 29 28 27 27 27 26 25 25 24 25 28 30 31
21 21 21 20 20 20 20 21 23 25 26 27 28 28 27 26 27 29 28 25 20 18 17 16 16 19 20 20 20 17 16 17 15 14 14 13 14 14 14 16 14 12 12 8 5 8 13 19 23 20 15 9 9 10 12 15 17 17 17 19 20 21 21 22 23 21 21 24 23 23 23 21 23 25 26 27 26 25 26 26 25 24 24 23 24 27 30 31
Wind_Direction
80 77 73 70 67 64 62 59 56 53 50 47 43 39 35 31 28 24 20 14 9 2 354 348 339 330 318 304 293 282 276 274 272 273 271 265 264 264 263 260 255 252 248 248 247 245 245 244 244 247 254 262 267 291 302 301 317 341 335 338 352 1 19 19 33 26 353 360 9 7 13 12 18 24 19 20 25 23 38 60 110 107 125 161 143 107 99 101
77 74 69 66 62 59 55 51 48 44 41 37 33 30 25 22 18 16 13 8 6 359 354 349 342 334 322 312 299 285 278 273 270 270 266 262 262 261 260 259 254 251 249 247 246 245 242 240 240 241 248 256 262 273 289 296 306 320 307 321 346 345 353 1 5 5 345 341 343 341 351 350 8 20 16 12 7 6 30 73 74 146 213 161 158 118 101 106
75 71 66 62 58 54 49 44 40 36 32 27 24 19 15 12 7 5 1 358 356 351 348 343 339 333 324 317 304 292 281 272 272 269 261 258 259 258 257 257 254 251 249 246 245 245 242 239 237 237 243 250 259 272 279 290 295 297 301 322 336 324 329 341 335 330 319 320 332 340 326 293 335 9 356 358 350 326 299 117 61 312 175 170 177 129 108 104
72 67 62 58 53 49 43 38 33 28 24 19 15 11 6 1 358 355 350 347 344 342 340 336 335 329 323 316 305 296 282 275 270 260 255 254 254 254 253 254 254 252 249 246 244 244 241 237 236 236 241 244 253 269 272 278 286 286 291 308 312 302 309 321 317 304 298 316 333 339 325 289 308 349 333 306 276 240 239 218 240 292 153 175 192 132 109 95
64 59 54 49 45 41 36 31 26 21 16 12 7 3 360 354 351 347 342 339 336 335 333 332 330 326 321 313 304 294 284 278 260 252 253 251 250 249 250 251 251 251 249 246 243 241 240 237 236 237 237 243 249 259 265 268 282 287 288 294 291 284 290 299 303 298 295 312 320 321 331 311 302 329 332 312 272 212 229 228 238 254 178 175 194 143 98 93
50 46 41 37 33 29 26 22 18 13 9 6 1 358 354 350 346 341 338 333 330 329 328 328 327 324 319 311 303 291 283 272 258 258 256 250 250 249 247 248 248 249 248 246 245 242 240 236 235 236 235 244 250 257 265 266 276 283 286 294 292 284 280 282 289 289 290 301 302 306 319 303 297 310 315 307 268 235 277 230 229 250 197 173 186 162 97 92
24 25 23 21 18 16 14 12 9 5 3 360 357 354 350 347 342 337 333 329 328 326 326 327 326 324 318 310 302 290 283 269 261 264 257 247 248 247 247 246 245 247 247 245 245 243 241 236 234 235 232 237 246 253 254 256 267 275 281 289 288 287 283 278 279 281 285 289 289 295 300 293 298 302 297 300 268 244 267 228 218 239 209 186 186 169 115 100
342 351 356 360 359 360 2 1 359 358 357 355 353 351 348 344 340 335 331 328 326 325 326 327 326 323 317 310 300 291 286 267 259 260 255 247 244 245 245 244 244 244 244 245 244 244 241 236 232 229 230 239 247 247 246 254 265 269 270 274 276 281 282 280 280 284 287 288 288 288 289 287 290 291 286 292 276 245 246 228 220 229 218 206 188 172 145 108
316 323 332 339 341 346 350 350 351 352 351 351 350 348 346 342 338 334 330 328 326 326 328 328 327 323 316 309 301 294 281 264 258 255 252 247 241 242 243 242 242 241 241 241 241 242 240 236 232 226 226 233 238 241 246 256 261 260 263 268 272 275 281 286 287 288 292 295 294 284 283 282 280 281 275 280 278 244 224 215 216 220 220 211 189 183 172 120
306 311 320 325 331 336 339 342 344 346 347 348 347 346 344 341 338 334 331 328 327 329 330 330 328 323 316 309 302 294 279 272 266 257 251 247 241 239 241 241 240 238 239 238 238 238 238 238 235 227 225 225 229 236 240 248 253 254 264 269 271 275 281 287 286 285 288 291 290 283 283 282 279 279 272 274 268 226 207 207 212 211 209 211 201 190 186 140
307 309 314 318 324 329 333 336 339 342 344 345 346 345 343 341 338 335 332 330 330 331 332 332 328 323 317 310 304 294 285 282 270 258 252 247 242 239 240 241 240 238 237 236 235 236 235 236 232 226 228 225 228 235 236 241 247 250 262 268 271 280 285 284 289 294 294 292 287 285 286 284 281 278 277 277 252 214 203 202 208 207 202 209 206 195 196 166
309 311 313 315 321 325 329 332 336 339 341 343 344 343 343 341 338 335 333 331 331 332 333 332 328 322 316 310 305 296 289 281 269 261 252 246 242 239 239 239 239 238 237 236 235 234 233 232 228 229 230 226 227 233 237 238 242 252 263 272 277 286 286 285 294 299 299 295 289 285 281 280 282 280 287 282 240 211 205 197 203 209 204 207 205 200 202 182
311 313 313 315 319 323 325 329 334 336 338 341 342 342 342 340 338 336 333 331 332 332 333 330 326 320 314 310 304 298 290 280 272 264 255 248 243 239 237 238 238 238 238 237 235 233 233 230 228 229 228 227 229 230 238 237 239 255 264 275 283 284 280 285 297 300 303 298 288 284 282 280 284 283 287 274 224 202 199 197 202 209 206 206 206 205 202 188
313 313 313 316 319 322 323 327 332 334 337 339 340 341 340 339 338 335 332 331 331 332 332 329 324 318 313 309 304 298 291 282 276 267 259 252 245 241 238 237 237 238 238 237 235 233 233 231 230 229 226 228 231 228 237 238 235 250 266 274 278 278 278 287 296 303 311 303 288 287 295 294 283 279 279 253 209 192 189 192 198 205 207 206 208 209 203 194
311 312 314 315 319 322 322 326 330 332 334 336 338 338 337 338 336 333 331 329 330 331 330 327 322 317 313 308 304 298 290 284 278 270 262 254 248 243 240 238 236 236 237 237 235 234 233 232 231 229 227 229 230 229 232 236 235 245 266 271 274 277 281 290 295 303 313 310 299 291 297 299 278 269 272 237 203 187 180 183 191 202 210 211 212 212 206 205
310 312 314 315 318 320 321 324 327 329 331 333 334 334 335 335 334 331 329 328 329 329 328 326 320 316 312 307 304 298 291 285 279 274 265 257 252 246 241 239 237 236 235 236 235 235 235 233 233 231 230 228 227 228 224 224 233 239 255 265 272 274 276 289 297 301 313 317 313 298 283 284 274 260 251 223 197 179 174 180 188 199 210 216 218 215 210 214
309 312 312 314 317 319 321 323 325 327 328 329 330 331 332 332 331 329 328 327 327 328 327 323 318 315 311 308 304 298 293 287 281 274 265 258 252 248 243 239 238 236 235 235 234 235 235 234 233 232 231 228 226 226 219 218 226 233 247 255 265 272 277 291 301 302 314 318 317 318 295 280 266 224 202 193 180 166 170 179 189 199 208 223 227 224 217 218
310 312 312 316 319 321 322 323 324 324 325 325 326 327 329 329 328 327 326 325 325 326 325 321 317 315 313 311 305 299 294 288 282 274 266 258 250 247 243 239 237 236 235 236 235 235 235 234 233 231 230 225 225 225 215 218 223 228 241 248 256 267 274 284 295 298 308 312 310 330 330 306 146 150 156 170 176 167 174 180 190 199 202 221 231 231 226 224
316 316 317 319 321 322 322 322 322 322 322 322 322 324 325 325 325 324 324 323 324 324 322 319 316 315 315 313 308 304 298 290 283 274 266 256 250 245 240 236 234 234 235 235 235 235 234 234 231 229 229 221 221 222 215 220 223 226 237 251 269 270 274 284 288 288 293 299 306 328 332 296 138 147 155 172 188 177 181 182 189 202 207 220 228 230 230 229
321 321 320 321 322 321 320 320 319 318 319 319 319 320 320 321 321 321 322 321 322 322 319 317 315 317 317 313 311 305 299 292 282 272 266 258 252 247 241 237 233 231 231 231 231 234 235 236 232 225 217 208 220 219 214 226 227 227 227 221 276 272 267 279 282 282 282 286 297 316 322 314 147 176 185 178 181 173 183 190 192 205 210 219 229 229 229 228
320 319 319 318 319 318 317 316 315 316 316 315 316 316 316 318 318 319 320 319 321 319 317 317 316 318 317 316 313 303 296 289 278 271 265 257 249 244 238 234 228 222 224 228 226 227 233 231 228 223 204 202 216 209 203 220 219 223 229 208 263 274 264 268 272 274 276 280 289 288 296 306 258 218 214 199 199 193 191 195 199 207 211 218 227 225 227 231
314 315 315 314 315 314 314 313 312 313 313 312 312 311 312 314 314 316 317 317 318 318 317 317 316 316 315 315 311 303 296 285 277 270 262 254 245 237 227 220 214 206 208 214 196 160 242 263 226 202 217 223 221 212 210 222 216 219 232 190 107 283 282 284 275 276 280 278 280 272 266 273 268 247 242 247 249 232 207 202 203 203 208 215 220 222 223 229
310 310 310 311 311 312 312 311 310 309 309 308 307 307 309 310 312 314 314 314 316 316 314 313 314 313 311 310 307 303 297 291 284 270 262 254 242 232 221 212 202 196 175 172 184 132 84 277 234 207 232 234 226 225 224 228 226 226 230 156 122 281 297 297 272 269 281 276 263 258 254 256 269 263 258 261 257 246 220 210 210 205 204 210 215 219 224 226
307 307 308 309 310 310 310 309 307 305 305 304 303 304 305 306 308 311 311 312 314 312 310 309 309 307 303 304 302 297 295 292 284 269 261 252 246 237 225 215 194 184 156 159 180 129 168 233 233 221 241 237 223 230 228 226 226 226 231 195 170 207 285 301 281 261 254 266 262 259 260 257 266 267 260 252 242 239 227 216 216 214 208 209 211 212 219 226
305 306 306 307 307 307 306 305 304 303 302 299 299 301 301 304 306 307 308 309 312 310 307 309 308 305 303 300 297 292 289 286 278 264 251 245 242 232 223 216 192 186 194 186 179 146 213 236 236 227 242 234 227 234 228 224 220 215 237 235 201 189 177 266 283 261 238 251 261 258 263 258 257 261 256 250 239 233 232 221 216 220 214 211 213 210 215 222
303 303 304 304 304 304 303 302 300 299 298 296 296 297 298 301 302 304 306 307 312 308 302 306 307 305 300 296 297 293 285 278 271 262 253 245 240 233 224 215 207 205 207 198 201 228 245 245 226 226 244 238 236 240 232 224 214 200 201 235 240 209 181 194 243 248 232 237 253 256 260 259 250 248 248 256 257 240 230 221 213 215 216 214 215 211 213 219
300 301 301 301 301 301 300 298 297 296 296 293 293 293 295 298 299 302 305 308 313 308 302 306 304 303 301 298 297 292 291 283 268 260 253 245 243 242 230 215 211 214 206 188 242 269 256 245 222 223 237 235 281 266 248 229 199 191 211 196 197 205 198 211 228 232 222 226 239 247 257 267 260 255 254 264 277 259 238 233 228 223 221 221 218 211 211 217
298 298 298 298 298 298 297 295 294 293 292 290 290 291 293 295 296 299 303 307 307 301 305 313 307 302 300 298 295 289 291 289 281 267 249 244 245 244 244 237 223 223 210 172 144 282 264 243 224 217 198 148 304 255 244 223 179 186 228 216 205 213 214 220 228 228 228 232 241 239 240 257 262 261 259 262 273 268 250 247 247 240 230 223 215 210 211 213
295 295 295 295 294 294 293 291 290 289 287 287 287 287 289 291 294 296 301 307 299 294 304 311 306 301 298 295 293 291 288 286 290 272 247 238 234 233 240 247 240 239 223 184 209 266 256 233 225 219 203 179 241 245 238 204 187 199 234 240 235 238 234 235 239 238 235 232 232 235 237 250 257 254 254 259 262 260 260 260 258 252 240 229 219 217 217 214
292 292 292 292 290 290 290 287 286 286 284 283 281 282 285 286 289 291 296 309 301 297 303 299 294 294 292 288 285 286 285 280 276 266 262 251 237 245 238 244 261 207 193 309 281 296 287 251 244 231 231 238 253 262 248 203 214 230 259 266 270 282 271 257 254 247 235 232 232 236 241 248 254 254 254 263 262 258 260 259 262 261 247 236 229 224 222 221
289 289 289 289 288 287 285 284 284 282 280 278 276 277 278 279 285 287 289 299 299 305 309 294 289 290 288 291 288 283 285 281 277 272 266 251 242 244 227 233 174 147 60 20 336 326 327 277 259 258 248 252 250 240 234 219 230 251 261 257 285 319 308 290 271 260 243 238 238 242 247 248 252 255 254 260 261 260 259 253 256 266 259 246 237 226 222 225
287 287 286 286 285 284 283 281 281 277 275 274 272 271 272 275 279 276 281 290 288 316 319 299 292 294 292 301 294 286 293 286 279 278 270 268 268 255 239 250 216 180 11 358 324 326 331 314 300 289 253 245 241 230 272 283 263 262 267 256 151 249 278 297 294 280 287 271 256 256 254 251 253 257 259 261 263 263 263 260 257 262 266 256 241 229 224 226
283 283 283 282 282 281 280 278 277 274 272 270 268 267 267 269 273 275 288 295 263 257 303 300 300 300 296 305 288 275 286 280 277 287 280 295 296 274 290 268 233 188 165 208 271 323 315 311 318 308 259 241 229 176 248 280 305 343 335 70 106 234 257 297 313 283 310 316 288 273 257 253 258 264 265 264 264 263 262 264 261 260 265 257 241 233 230 231
280 279 279 278 277 277 276 275 274 271 269 267 265 263 263 265 266 265 255 289 286 280 277 282 289 293 292 297 278 276 285 273 275 282 261 47 52 346 314 283 234 172 152 160 190 222 261 303 309 301 242 221 210 183 200 200 136 354 311 154 240 264 242 263 278 261 274 274 261 259 253 257 265 267 264 261 262 265 261 259 259 259 262 251 237 233 232 232
278 276 276 274 273 273 271 271 269 267 265 262 261 260 261 257 252 257 217 269 290 289 278 273 278 287 287 256 252 277 277 250 262 265 238 124 76 351 290 270 237 184 155 146 160 198 226 279 268 268 283 247 226 211 213 185 141 163 268 172 223 250 252 280 282 268 260 253 254 260 255 257 265 268 268 265 261 265 262 258 258 256 258 251 235 232 228 223
275 274 273 271 271 269 267 267 264 263 260 257 259 258 255 250 242 250 255 217 240 265 274 283 280 281 299 282 265 275 271 255 266 272 254 211 137 202 242 248 236 204 186 172 152 158 183 252 257 273 305 284 240 218 207 198 166 154 188 268 219 213 260 260 253 253 251 234 247 268 263 256 266 272 272 269 264 264 259 255 258 258 259 258 247 243 240 230
273 272 271 269 268 267 264 262 259 257 256 254 257 255 247 246 237 227 258 239 230 256 268 278 279 268 270 281 279 285 298 295 277 257 260 264 200 221 242 244 228 216 219 210 176 174 179 231 263 260 280 293 236 219 222 210 176 151 170 246 222 191 271 246 224 231 240 227 238 272 271 263 269 274 276 277 270 264 258 252 254 258 260 260 258 262 263 251
273 270 269 267 267 265 262 259 256 253 252 250 253 250 242 244 235 215 266 260 240 245 242 208 243 272 244 196 256 282 296 318 275 200 175 258 258 248 257 257 234 221 221 213 214 226 198 157 288 244 219 278 253 214 233 219 182 179 193 240 198 188 271 270 236 228 240 248 244 266 272 269 272 275 278 283 276 265 261 257 257 260 264 263 258 260 266 260
273 269 267 266 265 263 260 258 254 251 251 250 249 246 239 241 236 221 244 260 242 241 245 205 206 265 249 155 179 275 285 283 249 193 157 248 258 257 260 262 246 228 225 223 226 244 196 159 260 280 245 295 307 153 201 303 251 222 221 245 212 216 260 280 282 287 256 231 213 227 259 263 268 272 275 279 279 272 264 263 265 262 262 265 257 252 255 252
273 269 267 265 262 260 258 256 254 252 252 249 245 241 234 232 235 238 249 259 247 240 243 213 202 228 194 150 157 241 261 253 239 210 271 261 254 263 272 269 251 233 227 232 224 225 217 176 182 258 304 17 294 225 130 153 254 242 227 235 248 259 263 242 249 273 265 247 234 235 253 259 260 267 271 273 276 274 265 263 267 263 258 260 257 249 247 245
272 269 267 263 260 259 257 256 255 253 251 246 242 239 235 231 228 243 260 252 235 235 237 216 216 228 202 174 177 195 210 249 222 171 239 266 259 266 272 264 247 238 234 234 224 221 230 208 190 214 311 10 257 253 242 212 221 225 205 211 213 213 223 224 215 223 220 241 261 247 254 265 263 265 267 267 268 267 264 263 263 263 258 254 254 251 248 248
270 268 268 263 259 258 255 254 253 252 249 246 243 238 237 237 224 215 244 240 222 234 244 231 230 241 229 209 205 194 199 233 218 186 206 268 262 239 254 260 250 243 238 235 242 239 234 231 224 211 183 212 246 255 240 230 231 231 227 229 220 213 228 244 236 221 201 210 233 236 252 266 266 267 268 269 272 266 261 261 259 259 258 251 250 248 246 248
269 270 270 261 256 255 255 254 253 253 250 246 245 238 235 240 233 225 237 245 231 233 242 238 236 241 243 236 221 206 223 236 230 214 198 249 254 244 254 265 245 225 230 232 245 251 234 219 225 227 216 222 251 281 259 241 239 246 253 265 252 234 237 251 250 243 220 210 218 223 241 255 257 262 265 265 271 271 266 262 254 249 247 244 244 243 241 245
268 270 269 258 255 256 255 254 252 251 250 244 242 239 234 236 238 236 239 245 245 240 239 240 240 238 241 244 226 207 226 237 233 228 198 209 249 260 265 264 239 216 228 237 243 248 238 226 223 229 231 234 278 289 285 264 239 246 261 278 267 248 237 244 254 255 244 230 226 225 237 249 250 255 262 263 265 269 272 268 260 249 242 239 241 240 240 242
265 267 267 258 254 255 252 250 249 246 244 240 237 236 234 235 241 242 238 239 245 241 236 240 244 239 231 238 235 220 215 211 215 237 224 212 242 264 263 260 245 229 236 244 246 242 244 248 240 228 218 204 221 226 236 245 227 224 229 239 267 266 248 244 250 257 259 254 248 243 247 255 256 256 262 267 267 267 269 268 266 261 249 243 245 244 240 237
260 262 266 260 255 255 252 249 249 247 246 246 243 239 235 237 242 242 234 236 243 242 237 238 241 239 230 233 239 233 223 211 202 212 231 228 243 260 262 262 248 243 250 253 245 241 246 253 256 242 223 221 228 223 227 244 244 232 224 225 253 268 254 240 241 252 258 255 254 253 252 258 263 264 264 267 269 268 268 272 273 267 256 248 247 247 245 237
257 257 262 263 258 254 251 249 249 248 247 248 247 243 238 236 239 241 235 233 240 244 242 235 229 234 239 239 239 236 234 229 208 198 220 240 230 250 266 270 256 252 259 253 240 240 244 246 247 245 238 237 242 237 236 247 251 247 240 231 233 244 253 248 243 247 251 254 258 258 257 261 266 270 270 268 269 267 265 271 278 274 262 253 248 249 250 244
256 255 256 260 258 251 247 247 245 244 242 243 244 242 239 233 234 237 232 227 233 239 241 235 216 212 225 234 239 236 234 238 223 211 234 253 231 233 264 274 268 262 256 247 244 242 242 244 241 239 243 248 247 243 242 247 252 253 252 251 249 255 264 264 257 253 250 254 261 262 263 266 267 271 274 272 271 269 266 268 273 274 270 260 253 253 252 248
256 258 257 260 260 252 246 245 246 247 244 244 246 244 242 242 241 237 225 222 234 240 240 237 223 217 221 218 225 232 225 234 240 226 232 247 229 219 252 276 278 271 255 246 249 244 238 239 240 237 238 248 250 245 243 247 254 256 256 258 260 261 265 265 261 258 257 259 264 266 267 269 271 273 275 275 275 272 272 272 269 269 272 267 259 256 253 249
256 259 259 259 258 251 247 246 249 251 247 247 248 245 245 246 246 242 223 214 234 247 241 234 220 219 230 221 216 225 217 216 235 235 231 237 236 231 233 251 272 271 263 260 257 251 240 232 237 242 244 255 264 256 249 249 251 257 259 259 260 260 263 266 262 260 262 264 265 267 270 272 274 275 275 277 277 274 273 273 270 269 272 270 260 254 252 250
257 257 257 255 253 253 252 249 248 248 246 248 249 248 250 247 245 246 231 212 221 241 245 241 221 208 221 230 223 221 223 219 219 232 244 243 239 235 221 212 232 264 272 275 266 256 244 231 232 241 243 257 272 266 260 255 248 251 259 261 260 259 258 262 263 261 263 264 264 268 272 274 275 275 276 276 276 275 272 270 269 269 269 266 256 249 248 248
255 255 256 255 254 255 254 250 248 247 246 247 248 249 250 246 242 242 234 221 220 223 224 235 232 211 210 224 224 214 221 235 231 233 246 240 228 226 217 214 229 247 257 264 248 251 247 229 225 228 224 241 288 274 254 255 252 247 251 256 261 262 258 260 265 264 260 261 264 267 270 274 276 276 277 276 274 274 270 267 265 263 261 258 250 245 244 243